{"data":{"norad_id":52111,"epoch":"2026-09-20T01:18:49.771872Z","epoch_age_seconds":94154,"freshness":"FRESH","line1":"1 52111U 22029Z   26263.05474273 -.00036849  00000+0 -10795-2 0  9991","line2":"2 52111  53.1583 271.4564 0001173 117.7715 242.3407 15.34552619250333","mean_motion":15.34552619,"eccentricity":0.0001173,"inclination_deg":53.1583,"raan_deg":271.4564,"arg_perigee_deg":117.7715,"mean_anomaly_deg":242.3407,"bstar":-0.0010795,"rev_number":25033,"period_min":93.838424448318,"perigee_km":461.44728461639,"apogee_km":463.05203932729,"semimajor_km":6840.3866619718,"source":"CELESTRAK","updated_at":"2026-09-20T09:00:39.987594Z"}}